Tracking 33744 objects as of 12-Apr-2026
HD Live streaming from Space Station
objects crossing your sky now

GSAT 1

Track GSAT 1 now!
GSAT 1 is classified as:


NORAD ID: 26745
Int'l Code: 2001-015A
Perigee: 33,851.9 km
Apogee: 35,802.8 km
Inclination: 12.8 °
Period: 1,387.0 minutes
Semi major axis: 41198 km
RCS: 3.1622 m2 (large)
Launch date: April 18, 2001
Source: India (IND)
Launch site: SRIHARIKOTA (SRI)
Your satellite tracking list
Your tracking list is empty




NASA's NSSDC Master Catalog

Two Line Element Set (TLE):
1 26745U 01015A   26101.56017094 -.00000075  00000-0  00000-0 0  9996
2 26745  12.7750   4.3285 0236772 292.4056 247.3895  1.03820607 94834
Source of the keplerian elements: AFSPC